Weather in Ognevo

Russia / Tyumen Oblast     55°46′22″N   69°18′58″E
temp.,
°C
wind,
m/s
gust,
m/s
humid.,
%
clouds,
%
prec.,
mm/h
press.,
hPa
HPBL,
m
6 march, sat
sat623:00−2ssw71396100 0.6 1001804
02:00−1ssw91596100 1.9 998943
05:00−1w81487100 2.3 998797
08:00−6w7148898 0.1 1001654
11:00−9w7128792 0.1 1006593
14:00−8w712810 0.0 1008696
17:00−9wsw511870 0.0 1009394
20:00−12sw512911 0.0 1010238
7 march, sun
sun723:00−13sw510930 0.0 1012196
02:00−14wsw5119211 0.0 1012232
05:00−16wsw45955 0.0 101477
08:00−16sw339557 0.0 101556
11:00−12s359477 0.0 1015216
14:00−9sse3591100 0.0 1014274
17:00−8se5992100 0.1 1009477
20:00−8ese61195100 2.6 1004572
8 march, mon
mon823:00−2s41298100 4.9 999548
02:00+1ssw91698100 2.8 996851
05:00−9nw71393100 4.7 997551
08:00−12wnw7149199 0.1 1002439
11:00−11wnw71190100 0.1 1007499
14:00−11w6108595 0.0 1010582
17:00−12sw5108887 0.0 1012502
20:00−13ssw51292100 0.0 1013474
9 march, tue
tue923:00−11ssw61292100 0.1 1013500
02:00−11ssw61293100 0.1 1012489
05:00−12ssw61293100 0.2 1012404
08:00−13ssw71393100 0.1 1011384
11:00−10ssw71293100 0.1 1010461
14:00−7ssw81491100 0.1 1008675
17:00−6sw71390100 0.3 1007786
20:00−7sw61392100 0.1 1008496
10 march, wed
wed1023:00−8sw41094100 0.2 1009236
02:00−11sw349692 0.0 101051
05:00−13sw239596 0.0 101021
08:00−12ssw2295100 0.0 100921
11:00−8sse2392100 0.0 1007237
14:00−6se1293100 0.3 1006245
17:00−6wnw1196100 0.8 1004105
20:00−9nw119792 0.3 100421